Weather History for KMAN - October, 2012

Change the Weather History Date:

Wednesday, October 3, 2012

  Actual Average (KBOI) Record (KBOI)
Temperature  
Mean Temperature 52 °F 58 °F  
Max Temperature 64 °F 71 °F 91 °F (1963)
Min Temperature 35 °F 45 °F 28 °F (1877)
Degree Days  
Heating Degree Days 14 8  
Month to date heating degree days 22  
Since 1 July heating degree days 143  
Cooling Degree Days 0 1  
Month to date cooling degree days 3  
Year to date cooling degree days 937  
Growing Degree Days 2 (Base 50)    
Moisture  
Dew Point 16 °F    
Average Humidity 26    
Maximum Humidity 65    
Minimum Humidity 11    
Precipitation  
Precipitation 0.00 in 0.02 in 1.08 in (1901)
Month to date precipitation 0.06  
Year to date precipitation 8.14  
Snow  
Snow 0.00 in 0.00 in 0.00 in (2006)
Month to date snowfall 0.0  
Since 1 July snowfall 0.0  
Snow Depth -    
Sea Level Pressure  
Sea Level Pressure 30.17 in    
Wind  
Wind Speed 10 mph (NW)    
Max Wind Speed 20 mph    
Max Gust Speed 28 mph    
Visibility 10 miles    
Events      
T = Trace of Precipitation, MM = Missing Value Source: NWS Daily Summary

Daily Weather History Graph

Daily Weather History Graph

Search for Another Location

Airport or City:

Trip Planner

Search our weather history database for the weather conditions in past years. The results will help you decide how hot, cold, wet, or windy it might be!

Date:

Astronomy

Oct. 03, 2012 Rise Set
Actual Time 7:46 AM MDT 7:22 PM MDT
Civil Twilight 7:18 AM MDT 7:51 PM MDT
Nautical Twilight 6:44 AM MDT 8:24 PM MDT
Astronomical Twilight 6:11 AM MDT 8:57 PM MDT
Moon 9:10 PM MDT 11:21 AM MDT
Length of Visible Light 12h 33m
Length of Day
11h 35m
Waning Gibbous, 88% of the Moon is Illuminated
Oct 3
Waning Gibbous
Oct 8
Last Quarter
Oct 15
New
Oct 21
First Quarter
Oct 29
Full

Hourly Weather History & Observations

Time (MDT) Temp. Windchill Dew Point Humidity Pressure Visibility Wind Dir Wind Speed Gust Speed Precip Events Conditions
12:15 AM 59.0 °F - 26.6 °F 29% 29.97 in - WNW 5.8 mph - N/A   Clear
12:35 AM 55.4 °F - 26.6 °F 33% 29.97 in - WNW 5.8 mph - N/A   Clear
12:55 AM 57.2 °F - 23.0 °F 27% 29.98 in - NW 8.1 mph - N/A   Clear
1:15 AM 59.0 °F - 23.0 °F 25% 29.99 in - NW 10.4 mph 17.3 mph N/A   Clear
1:35 AM 57.2 °F - 23.0 °F 27% 30.01 in - NNW 9.2 mph - N/A   Clear
1:55 AM 55.4 °F - 21.2 °F 26% 30.02 in - NNW 10.4 mph - N/A   Clear
2:15 AM 55.4 °F - 23.0 °F 29% 30.03 in - NNW 12.7 mph 17.3 mph N/A   Clear
2:35 AM 55.4 °F - 24.8 °F 31% 30.05 in - NW 12.7 mph 19.6 mph N/A   Clear
2:55 AM 53.6 °F - 24.8 °F 33% 30.07 in - NW 9.2 mph - N/A   Clear
3:15 AM 53.6 °F - 24.8 °F 33% 30.08 in - WNW 12.7 mph - N/A   Clear
3:35 AM 53.6 °F - 23.0 °F 30% 30.09 in - WNW 16.1 mph - N/A   Clear
3:55 AM 53.6 °F - 23.0 °F 30% 30.10 in - WNW 13.8 mph - N/A   Partly Cloudy
4:15 AM 51.8 °F - 19.4 °F 28% 30.11 in - WNW 12.7 mph - N/A   Mostly Cloudy
4:55 AM 50.0 °F - 21.2 °F 32% 30.12 in - WNW 11.5 mph - N/A   Mostly Cloudy
5:15 AM 50.0 °F - 19.4 °F 30% 30.13 in - WNW 16.1 mph - N/A   Mostly Cloudy
5:35 AM 50.0 °F - 19.4 °F 30% 30.14 in - WNW 15.0 mph - N/A   Overcast
5:55 AM 50.0 °F - 17.6 °F 28% 30.15 in - West 11.5 mph - N/A   Overcast
6:15 AM 50.0 °F - 15.8 °F 26% 30.16 in - WNW 17.3 mph 21.9 mph N/A   Overcast
6:35 AM 48.2 °F - 15.8 °F 27% 30.17 in - WNW 12.7 mph - N/A   Overcast
6:55 AM 48.2 °F - 14.0 °F 25% 30.18 in - NW 12.7 mph 21.9 mph N/A   Scattered Clouds
7:15 AM 46.4 °F 40.4 °F 12.2 °F 25% 30.18 in - NW 13.8 mph 19.6 mph N/A   Clear
7:35 AM 46.4 °F 40.7 °F 10.4 °F 23% 30.20 in - NW 12.7 mph 19.6 mph N/A   Clear
7:55 AM 44.6 °F 39.2 °F 12.2 °F 27% 30.21 in - NNW 10.4 mph - N/A   Clear
8:15 AM 44.6 °F 39.7 °F 10.4 °F 25% 30.21 in - NW 9.2 mph 18.4 mph N/A   Clear
8:35 AM 46.4 °F 40.4 °F 10.4 °F 23% 30.22 in 9.0 mi NW 13.8 mph 19.6 mph N/A   Clear
8:55 AM 46.4 °F 41.9 °F 12.2 °F 25% 30.23 in 10.0 mi NNW 9.2 mph - N/A   Clear
9:15 AM 46.4 °F 40.1 °F 12.2 °F 25% 30.23 in 10.0 mi NW 15.0 mph 18.4 mph N/A   Clear
9:35 AM 46.4 °F 39.5 °F 12.2 °F 25% 30.24 in 10.0 mi WNW 17.3 mph 21.9 mph N/A   Clear
9:55 AM 48.2 °F - 12.2 °F 24% 30.24 in 10.0 mi NW 16.1 mph 23.0 mph N/A   Clear
10:15 AM 48.2 °F - 14.0 °F 25% 30.24 in 10.0 mi WNW 16.1 mph 21.9 mph N/A   Clear
10:35 AM 50.0 °F - 12.2 °F 22% 30.25 in 10.0 mi NW 15.0 mph 20.7 mph N/A   Clear
10:55 AM 50.0 °F - 10.4 °F 20% 30.25 in 10.0 mi NW 12.7 mph 21.9 mph N/A   Clear
11:15 AM 51.8 °F - 8.6 °F 18% 30.25 in 10.0 mi NNW 18.4 mph 24.2 mph N/A   Clear
11:35 AM 53.6 °F - 8.6 °F 16% 30.26 in 10.0 mi NNW 13.8 mph 21.9 mph N/A   Clear
11:55 AM 53.6 °F - 8.6 °F 16% 30.25 in 10.0 mi NNW 16.1 mph 23.0 mph N/A   Clear
12:15 PM 53.6 °F - 8.6 °F 16% 30.25 in 10.0 mi NW 19.6 mph 27.6 mph N/A   Clear
12:35 PM 53.6 °F - 8.6 °F 16% 30.25 in 10.0 mi NNW 19.6 mph 24.2 mph N/A   Clear
12:55 PM 55.4 °F - 8.6 °F 15% 30.25 in 10.0 mi NW 12.7 mph 23.0 mph N/A   Clear
1:15 PM 57.2 °F - 8.6 °F 14% 30.25 in 10.0 mi WNW 12.7 mph 18.4 mph N/A   Clear
1:35 PM 57.2 °F - 8.6 °F 14% 30.24 in 10.0 mi NNW 13.8 mph 20.7 mph N/A   Clear
1:55 PM 59.0 °F - 8.6 °F 14% 30.23 in 10.0 mi NNW 12.7 mph 20.7 mph N/A   Clear
2:15 PM 59.0 °F - 8.6 °F 14% 30.23 in 10.0 mi NNW 13.8 mph 19.6 mph N/A   Clear
2:35 PM 59.0 °F - 8.6 °F 14% 30.22 in 10.0 mi NNW 9.2 mph 19.6 mph N/A   Clear
2:55 PM 60.8 °F - 8.6 °F 13% 30.21 in 10.0 mi NW 10.4 mph 19.6 mph N/A   Clear
3:15 PM 60.8 °F - 8.6 °F 13% 30.21 in 10.0 mi WNW 12.7 mph - N/A   Clear
3:35 PM 62.6 °F - 8.6 °F 12% 30.20 in 10.0 mi NW 11.5 mph 17.3 mph N/A   Clear
3:55 PM 62.6 °F - 8.6 °F 12% 30.19 in 10.0 mi NW 11.5 mph 19.6 mph N/A   Clear
4:15 PM 62.6 °F - 8.6 °F 12% 30.19 in 10.0 mi NW 9.2 mph 16.1 mph N/A   Clear
4:55 PM 62.6 °F - 10.4 °F 13% 30.18 in 10.0 mi NW 10.4 mph 17.3 mph N/A   Clear
5:15 PM 64.4 °F - 10.4 °F 12% 30.18 in 10.0 mi NW 11.5 mph - N/A   Clear
5:35 PM 62.6 °F - 8.6 °F 12% 30.17 in 10.0 mi NW 12.7 mph - N/A   Clear
5:55 PM 64.4 °F - 8.6 °F 11% 30.17 in 10.0 mi NW 11.5 mph 16.1 mph N/A   Clear
6:15 PM 62.6 °F - 8.6 °F 12% 30.17 in 10.0 mi NW 9.2 mph - N/A   Clear
6:35 PM 62.6 °F - 12.2 °F 14% 30.16 in 10.0 mi WNW 12.7 mph - N/A   Clear
6:55 PM 60.8 °F - 14.0 °F 16% 30.16 in 10.0 mi West 8.1 mph - N/A   Clear
7:15 PM 59.0 °F - 15.8 °F 19% 30.17 in 10.0 mi West 6.9 mph - N/A   Clear
7:35 PM 57.2 °F - 15.8 °F 20% 30.17 in 10.0 mi West 5.8 mph - N/A   Clear
7:55 PM 55.4 °F - 17.6 °F 23% 30.17 in 10.0 mi WNW 5.8 mph - N/A   Clear
8:15 PM 55.4 °F - 17.6 °F 23% 30.17 in 10.0 mi West 3.5 mph - N/A   Clear
8:35 PM 53.6 °F - 17.6 °F 24% 30.17 in 10.0 mi West 3.5 mph - N/A   Clear
8:55 PM 53.6 °F - 19.4 °F 26% 30.17 in 10.0 mi Calm Calm - N/A   Clear
9:15 PM 50.0 °F - 23.0 °F 35% 30.17 in 10.0 mi Calm Calm - N/A   Partly Cloudy
9:35 PM 48.2 °F - 24.8 °F 40% 30.17 in 10.0 mi Calm Calm - N/A   Partly Cloudy
9:55 PM 41.0 °F - 24.8 °F 53% 30.18 in 10.0 mi Calm Calm - N/A   Scattered Clouds
10:15 PM 41.0 °F - 26.6 °F 57% 30.18 in 10.0 mi Calm Calm - N/A   Scattered Clouds
10:35 PM 39.2 °F - 26.6 °F 61% 30.19 in 10.0 mi Calm Calm - N/A   Partly Cloudy
10:55 PM 39.2 °F 35.9 °F 26.6 °F 61% 30.19 in 10.0 mi SE 4.6 mph - N/A   Clear
11:15 PM 42.8 °F - 24.8 °F 49% 30.19 in 10.0 mi Calm Calm - N/A   Clear
11:35 PM 39.2 °F 37.0 °F 24.8 °F 56% 30.20 in 10.0 mi SSE 3.5 mph - N/A   Clear
11:55 PM 35.6 °F - 24.8 °F 65% 30.20 in 10.0 mi Calm Calm - N/A   Clear